Theta_e
337 339 339 340 339 336 331 325 321 321 324 327 329 327 324 322 323 322 319 317 317 319 320 319 318 319 320 321 323 323 323 324 326 329 331 330 329 329 329 329 328 327
334 337 339 341 341 336 331 325 319 318 319 322 323 322 322 322 322 320 317 316 316 316 317 317 317 318 319 321 321 322 322 322 324 328 329 329 328 328 329 329 328 328
332 335 338 339 338 335 332 325 320 318 317 318 319 319 321 322 321 319 316 315 315 315 315 316 317 318 319 320 321 321 321 321 322 325 326 326 326 326 327 328 328 328
330 332 334 336 335 332 329 323 318 317 317 317 317 318 319 320 319 317 315 315 315 315 316 317 317 318 319 320 321 321 321 321 321 322 322 324 324 325 326 327 326 327
326 329 331 334 335 333 328 322 317 317 316 316 317 318 318 318 317 315 314 314 315 316 317 318 319 321 322 323 323 321 320 319 320 320 321 322 323 324 324 325 325 325
325 326 329 332 333 332 328 321 317 316 316 316 317 317 317 316 315 315 314 315 316 317 319 321 323 325 325 325 324 322 320 320 320 320 320 321 322 323 323 324 324 325
326 326 329 330 330 330 329 321 316 315 316 317 317 316 315 315 315 315 315 317 319 320 322 324 325 326 326 325 324 323 323 323 323 322 323 323 324 324 324 324 325 326
329 328 329 327 326 328 328 321 316 316 316 316 316 315 315 316 316 316 318 320 322 323 325 326 326 326 325 324 324 324 325 325 324 325 325 326 325 325 325 325 326 326
331 332 331 327 323 323 323 319 316 316 316 316 316 316 315 316 318 319 321 323 324 325 327 327 326 325 325 324 324 324 324 324 325 325 325 325 325 325 325 326 326 325
332 332 332 330 326 323 320 319 317 315 315 317 316 315 316 317 319 320 323 325 325 326 327 326 325 323 322 323 323 323 324 324 325 324 324 323 324 325 325 325 323 322
333 333 334 331 328 328 323 318 317 315 316 319 318 316 316 317 318 320 324 326 326 326 327 326 325 323 322 322 322 323 325 325 325 323 322 323 325 325 323 322 322 323
333 335 335 330 333 337 330 320 318 317 318 321 320 317 316 318 319 321 324 325 325 326 326 327 326 325 323 323 322 323 325 326 324 322 322 324 324 323 321 322 323 324
332 334 336 338 345 346 333 321 319 319 320 320 318 317 317 318 319 321 323 324 324 325 326 326 325 324 323 321 321 322 325 325 323 321 323 324 323 322 322 323 324 325
332 338 343 345 347 342 329 321 321 320 320 319 318 317 317 319 320 321 323 324 324 325 326 325 323 322 321 320 320 322 324 323 321 321 322 322 322 322 323 324 325 326
339 345 347 347 344 336 326 322 322 322 321 321 321 320 318 319 321 322 324 324 324 325 326 323 321 320 320 320 320 322 322 321 321 321 321 321 322 323 324 325 326 327
344 343 345 347 344 336 328 324 323 325 323 320 321 322 320 321 322 323 325 324 324 325 324 321 320 320 321 320 321 322 322 322 322 323 322 323 323 324 325 325 326 326
346 344 345 347 345 340 332 326 325 325 322 321 324 323 321 322 323 323 323 322 323 324 322 320 320 321 321 321 322 323 324 324 324 324 325 325 325 325 325 326 326 326
349 347 347 345 345 344 337 329 325 323 321 324 329 329 325 323 323 323 322 322 322 321 320 319 319 321 323 324 323 324 325 326 327 327 327 327 326 327 327 326 326 326
350 349 348 344 342 342 337 329 325 322 322 325 326 326 327 325 323 322 322 321 321 320 319 319 320 321 324 325 325 326 327 329 329 330 330 330 329 329 328 327 327 326
351 349 347 342 338 335 331 327 322 321 325 324 319 320 325 325 322 322 321 320 320 320 320 321 322 323 325 327 328 329 330 331 331 332 332 332 332 330 328 328 327 326
351 348 343 340 337 334 330 326 322 323 324 322 319 320 321 321 321 321 321 320 320 321 321 323 324 325 327 328 330 332 333 333 332 331 330 331 332 331 328 327 326 325
350 348 345 341 338 334 331 326 324 325 324 322 322 321 319 320 322 322 322 321 321 322 323 324 325 327 328 330 331 333 333 331 330 330 331 331 332 330 328 326 325 325
351 349 348 345 339 334 332 329 327 325 324 323 323 322 320 321 322 322 324 324 322 323 324 325 326 327 329 331 331 332 331 330 329 330 331 331 329 327 326 325 325 325
350 349 348 346 342 336 331 329 328 325 323 322 323 322 321 323 324 328 331 330 325 324 325 326 327 328 329 330 330 331 330 329 329 330 331 329 327 326 325 325 325 325
348 348 346 344 342 337 332 329 329 327 324 323 323 323 324 327 330 334 336 335 331 329 328 327 327 327 328 329 329 330 329 328 330 330 329 328 326 326 326 325 325 325
346 346 345 342 339 334 332 331 330 327 325 323 324 326 329 330 333 336 338 338 337 335 334 333 332 332 331 330 330 330 328 328 330 329 327 326 325 325 325 325 324 324
Wind_Speed
27 25 22 20 19 18 17 16 16 17 18 17 17 17 16 15 13 11 11 10 9 9 9 9 9 10 10 10 10 9 9 9 8 7 7 7 7 7 7 8 8 10
27 25 23 21 20 19 17 17 17 17 17 17 17 16 16 15 14 13 12 11 10 10 10 11 11 11 11 11 11 11 12 12 11 10 10 10 10 11 11 11 11 12
29 26 24 23 21 19 18 17 18 18 18 18 18 17 17 16 15 15 14 13 12 11 11 12 13 12 11 12 13 13 13 13 14 13 13 13 13 13 13 13 13 13
30 28 25 24 22 20 18 19 20 20 20 20 19 19 19 18 17 17 15 15 14 13 13 13 12 11 10 11 12 13 13 14 14 15 15 15 15 14 13 13 13 14
31 29 27 25 23 21 20 21 22 22 23 22 21 21 21 20 19 17 17 17 16 14 14 12 11 10 10 11 12 12 12 12 13 14 15 15 14 14 13 14 14 14
33 32 29 27 25 22 22 23 24 25 25 24 22 22 21 20 19 18 17 18 17 15 13 11 10 11 12 12 12 12 11 11 11 12 13 13 13 13 14 14 15 15
37 35 31 29 27 25 24 24 26 27 26 23 22 21 21 20 19 18 18 18 17 15 12 11 11 12 12 12 12 12 11 11 10 10 12 12 13 14 14 14 15 16
41 37 34 32 29 27 25 26 28 28 25 23 22 22 20 19 19 18 19 18 16 14 12 12 12 12 12 13 12 12 11 10 10 11 12 14 14 14 14 14 15 16
43 40 37 34 32 31 29 28 29 27 24 23 23 21 20 19 19 19 19 18 16 14 13 13 13 13 13 13 12 11 10 9 10 12 14 14 14 14 13 13 13 14
46 43 40 37 35 34 31 29 30 27 24 22 22 21 21 20 20 20 20 18 16 15 14 13 13 13 13 13 12 10 10 10 10 12 13 13 13 13 12 11 12 13
49 46 44 40 38 36 33 31 30 27 23 20 22 23 22 21 22 22 20 19 17 16 15 14 13 13 13 12 11 10 10 10 10 11 12 13 13 12 11 10 12 14
52 51 47 42 39 36 32 30 28 26 23 20 22 24 24 23 24 23 21 20 18 17 15 14 14 13 13 12 12 11 11 10 10 12 13 14 13 12 11 12 13 15
56 54 49 43 39 33 28 27 27 26 24 21 22 24 25 24 24 23 21 20 18 17 15 14 14 14 14 14 13 12 11 11 11 13 14 15 14 13 13 14 16 17
59 55 49 44 40 34 30 30 30 26 23 22 24 26 26 25 25 23 21 20 18 17 15 14 15 15 15 15 14 13 11 11 12 14 16 16 16 15 16 17 18 19
55 49 47 47 44 38 35 36 33 26 23 23 25 26 26 26 25 23 22 21 19 17 16 16 16 16 15 15 14 13 11 11 12 14 16 17 17 18 18 19 20 21
43 37 41 48 48 44 41 39 34 27 24 25 26 26 27 27 25 24 23 22 20 18 17 17 17 16 14 14 14 12 12 12 13 15 16 18 19 19 20 21 22 24
44 42 46 52 53 50 47 42 36 29 25 26 26 26 27 27 26 26 25 23 21 20 19 20 19 16 15 14 14 13 13 14 15 17 18 20 20 20 21 22 23 25
51 52 53 55 55 53 49 43 38 33 29 27 27 27 27 28 28 28 26 23 22 21 21 21 20 17 16 15 15 15 15 17 18 20 21 22 23 23 23 24 25 27
51 52 54 54 52 52 50 43 38 36 33 30 30 28 27 28 29 28 26 23 22 22 22 21 20 18 17 16 15 15 16 18 21 22 24 25 25 26 25 26 27 28
48 49 48 44 44 47 45 39 36 36 33 31 31 29 28 29 30 29 26 24 23 22 21 20 19 18 17 16 15 16 18 21 23 25 26 27 28 28 26 26 27 28
43 41 37 35 40 43 39 37 39 39 33 30 29 28 27 29 30 28 25 23 23 22 21 20 19 17 17 16 17 19 21 23 25 26 26 28 29 27 24 24 26 28
40 40 38 37 39 41 42 44 46 41 34 30 28 27 28 29 30 29 26 23 22 22 22 21 20 18 18 18 19 21 22 23 24 25 25 25 26 23 22 23 26 27
39 41 42 41 39 42 47 49 44 36 32 30 28 27 27 28 29 28 26 24 22 23 24 23 22 20 20 21 22 22 23 23 24 24 23 22 21 20 21 24 26 27
38 39 41 40 40 46 51 45 34 27 28 28 28 26 25 26 30 30 29 27 24 24 24 24 23 23 23 24 24 24 24 24 24 23 22 21 20 21 23 25 26 27
33 34 35 37 41 48 50 41 30 26 28 29 29 29 28 31 34 32 31 29 27 27 28 27 27 27 26 26 27 28 26 24 22 21 21 20 21 22 24 26 27 28
29 30 32 35 37 34 32 32 30 29 30 30 31 32 32 33 34 33 32 30 28 28 28 29 30 28 26 27 28 28 26 23 21 20 20 21 23 24 25 26 27 27
Wind_Direction
223 226 228 232 238 242 243 245 246 248 249 248 249 252 251 246 246 251 254 247 234 227 231 240 245 244 243 241 238 230 225 225 228 238 251 260 266 271 274 277 278 281
224 227 229 234 238 241 244 244 245 246 247 248 249 248 244 241 245 249 248 238 228 227 231 236 237 237 238 239 240 235 232 234 236 244 253 260 267 272 278 283 286 288
224 226 228 232 236 239 243 244 243 243 243 245 243 241 239 240 245 245 240 234 231 229 229 229 229 230 235 240 242 243 242 242 243 248 255 261 268 274 282 286 288 290
223 226 227 230 233 237 241 242 240 238 238 237 236 236 237 237 239 239 235 231 230 229 227 227 227 232 241 246 248 250 250 251 251 253 258 265 271 277 281 283 285 289
221 224 225 228 231 233 238 239 236 234 233 232 232 233 234 234 234 234 231 227 226 227 228 229 236 247 255 258 258 258 258 258 258 258 262 266 270 273 274 277 284 290
219 221 223 226 228 230 235 237 235 233 229 227 228 230 232 233 233 231 228 225 222 223 227 235 246 254 260 261 258 258 261 263 262 261 263 265 266 268 271 277 285 289
219 220 220 223 226 229 233 235 234 230 226 224 226 229 231 231 231 229 227 223 220 220 226 238 248 254 258 256 251 253 259 262 263 262 264 266 268 270 275 281 286 288
221 221 220 221 222 226 229 233 233 228 222 223 225 227 229 228 227 226 223 219 216 219 228 237 245 250 251 249 247 251 256 259 262 264 267 271 273 276 280 282 284 287
223 223 221 220 221 222 224 229 231 225 219 222 226 227 227 225 222 220 218 216 215 221 229 235 243 246 245 244 244 248 254 259 264 269 273 276 277 279 283 284 285 290
224 224 223 221 221 220 220 225 228 222 217 223 228 229 227 222 216 214 213 215 217 222 228 235 242 244 243 241 243 250 259 266 271 275 277 277 277 280 284 285 286 292
227 227 225 222 221 220 218 224 227 219 213 224 233 231 227 220 213 211 212 216 219 223 229 235 241 244 244 244 248 256 264 272 278 279 274 270 271 274 277 280 286 295
230 230 228 224 223 222 220 225 228 219 214 225 234 231 227 220 213 211 214 217 221 225 230 235 240 244 247 249 252 256 262 272 278 275 268 264 264 266 271 278 288 297
232 232 230 227 225 224 224 229 231 227 224 229 234 232 228 222 216 213 215 219 222 226 230 235 241 245 248 250 251 251 256 266 270 269 265 262 263 269 276 283 288 293
236 232 227 225 223 221 224 228 227 226 229 231 232 233 229 224 219 216 217 221 223 226 231 235 241 246 249 250 248 246 251 259 264 265 264 264 268 275 281 285 287 290
236 227 221 224 222 217 219 223 219 218 225 229 231 232 230 226 222 220 221 224 225 227 231 235 240 245 247 246 243 242 246 253 260 264 266 267 271 277 282 287 290 291
231 218 218 224 222 216 218 218 213 214 222 227 230 232 231 227 223 223 224 224 225 228 231 234 239 242 242 239 237 239 244 251 258 263 267 270 273 277 284 289 291 292
231 227 227 227 221 216 216 215 212 215 220 223 225 229 231 230 226 226 226 225 226 229 232 235 237 238 235 232 234 239 247 253 259 264 268 273 276 281 287 291 292 292
237 236 235 230 221 214 210 208 209 212 213 217 224 229 232 232 230 229 228 226 228 230 233 235 237 237 235 233 234 240 248 257 263 267 270 274 278 282 287 291 294 295
240 241 239 232 220 210 205 203 206 208 205 209 217 224 231 234 234 232 230 228 230 232 234 237 239 240 239 240 244 250 259 266 269 271 272 274 277 279 284 290 296 298
243 244 240 226 211 206 204 201 204 207 205 204 208 216 228 234 234 233 231 230 232 234 237 240 241 241 243 248 256 263 269 273 275 276 276 275 274 274 280 289 296 297
245 241 234 218 207 208 207 200 201 205 202 199 205 212 219 226 232 233 232 233 235 237 239 241 241 241 244 252 261 268 274 277 278 278 278 278 279 280 285 291 294 294
245 242 237 226 213 209 207 202 204 206 199 195 205 212 212 222 233 235 233 237 240 240 240 240 241 243 249 258 265 271 276 280 282 281 279 280 285 289 291 291 291 291
249 246 243 235 219 207 204 204 204 203 193 191 202 208 207 218 231 234 237 242 243 244 245 245 247 250 255 261 266 270 275 280 284 283 278 277 282 286 288 288 289 289
255 250 246 241 225 209 204 203 200 194 187 187 197 203 207 221 234 242 248 248 245 246 249 250 251 252 254 258 263 270 276 281 282 278 274 276 281 285 287 287 288 287
257 251 246 239 224 211 205 202 200 197 191 191 202 213 222 233 241 249 253 251 250 252 252 253 255 256 257 263 271 277 279 279 277 275 275 281 285 285 285 285 285 284
250 247 240 227 216 208 200 195 198 198 194 201 218 228 234 240 245 252 256 257 260 262 260 259 259 260 265 274 279 279 274 272 274 277 280 283 282 281 281 282 282 283